EN

Hourly Weather Lady

Today, 25 July, Sunday

Time Temperature Precipitation Wind Pressure Humidity
00:00 +20°C° 0 mm 3 mps 751 mmHg 65%
01:00 +20°C° 0 mm 3 mps 751 mmHg 66%
02:00 +20°C° 0 mm 3 mps 751 mmHg 68%
03:00 +20°C° 0 mm 3 mps 750 mmHg 69%
04:00 +20°C° 0 mm 3 mps 750 mmHg 70%
05:00 +21°C° 0 mm 3 mps 750 mmHg 68%
06:00 +22°C° 0 mm 4 mps 751 mmHg 66%
07:00 +23°C° 0 mm 4 mps 751 mmHg 63%
08:00 +25°C° 0 mm 4 mps 751 mmHg 57%
09:00 +27°C° 0 mm 4 mps 751 mmHg 51%
10:00 +29°C° 0 mm 4 mps 751 mmHg 46%
11:00 +29°C° 0 mm 4 mps 751 mmHg 43%
12:00 +30°C° 0 mm 4 mps 750 mmHg 40%
13:00 +32°C° 0 mm 4 mps 750 mmHg 37%
14:00 +32°C° 0 mm 4 mps 750 mmHg 38%
15:00 +30°C° 0 mm 4 mps 750 mmHg 39%
16:00 +29°C° 0 mm 4 mps 750 mmHg 41%
17:00 +28°C° 0 mm 3 mps 750 mmHg 46%
18:00 +26°C° 0 mm 3 mps 750 mmHg 52%
19:00 +25°C° 0 mm 2 mps 750 mmHg 58%
20:00 +24°C° 0 mm 2 mps 750 mmHg 61%
21:00 +24°C° 0 mm 2 mps 750 mmHg 63%
22:00 +23°C° 0 mm 1 mps 750 mmHg 66%
23:00 +23°C° 0 mm 2 mps 750 mmHg 66%

Tomorrow, 26 July, Monday

Time Temperature Precipitation Wind Pressure Humidity
00:00 +22°C° 0 mm 3 mps 750 mmHg 67%
01:00 +22°C° 0 mm 3 mps 750 mmHg 67%
02:00 +22°C° 0 mm 4 mps 750 mmHg 65%
03:00 +22°C° 0 mm 4 mps 750 mmHg 63%
04:00 +22°C° 0 mm 5 mps 749 mmHg 61%
05:00 +22°C° 0 mm 5 mps 749 mmHg 61%
06:00 +23°C° 0 mm 5 mps 749 mmHg 61%
07:00 +23°C° 0 mm 5 mps 749 mmHg 62%
08:00 +23°C° 0 mm 5 mps 749 mmHg 62%
09:00 +25°C° 0 mm 5 mps 750 mmHg 63%
10:00 +25°C° 0 mm 4 mps 750 mmHg 64%
11:00 +26°C° 0.1 mm 4 mps 750 mmHg 61%
12:00 +27°C° 0.1 mm 4 mps 749 mmHg 58%
13:00 +28°C° 0.1 mm 5 mps 749 mmHg 55%
14:00 +28°C° 0.5 mm 4 mps 749 mmHg 57%
15:00 +28°C° 0.5 mm 4 mps 748 mmHg 58%
16:00 +28°C° 0.5 mm 4 mps 748 mmHg 60%
17:00 +26°C° 6.4 mm 3 mps 748 mmHg 72%
18:00 +24°C° 6.4 mm 3 mps 748 mmHg 83%
19:00 +21°C° 6.4 mm 2 mps 748 mmHg 95%
20:00 +21°C° 1.3 mm 2 mps 748 mmHg 95%
21:00 +20°C° 1.3 mm 2 mps 748 mmHg 96%
22:00 +20°C° 1.3 mm 2 mps 748 mmHg 96%
23:00 +20°C° 0 mm 2 mps 748 mmHg 96%

Day after tomorrow, 27 July, Tuesday

Time Temperature Precipitation Wind Pressure Humidity
00:00 +20°C° 0 mm 2 mps 748 mmHg 96%
01:00 +19°C° 0 mm 2 mps 748 mmHg 96%
02:00 +19°C° 0 mm 2 mps 748 mmHg 95%
03:00 +19°C° 0 mm 2 mps 748 mmHg 95%
04:00 +19°C° 0 mm 2 mps 749 mmHg 94%
05:00 +20°C° 0 mm 2 mps 749 mmHg 89%
06:00 +23°C° 0 mm 2 mps 749 mmHg 85%
07:00 +24°C° 0 mm 3 mps 749 mmHg 80%
08:00 +24°C° 0 mm 3 mps 749 mmHg 79%
09:00 +24°C° 0 mm 3 mps 749 mmHg 78%
10:00 +24°C° 0 mm 3 mps 750 mmHg 77%
11:00 +24°C° 0.1 mm 3 mps 750 mmHg 79%
12:00 +22°C° 0.1 mm 3 mps 750 mmHg 81%
13:00 +22°C° 0.1 mm 4 mps 750 mmHg 84%
14:00 +24°C° 0 mm 3 mps 750 mmHg 77%
15:00 +25°C° 0 mm 3 mps 750 mmHg 71%
16:00 +26°C° 0 mm 3 mps 750 mmHg 64%
17:00 +25°C° 0 mm 3 mps 750 mmHg 67%
18:00 +24°C° 0 mm 2 mps 750 mmHg 69%
19:00 +24°C° 0 mm 2 mps 750 mmHg 72%
20:00 +23°C° 0 mm 2 mps 750 mmHg 74%
21:00 +21°C° 0 mm 2 mps 750 mmHg 76%
22:00 +20°C° 0 mm 2 mps 751 mmHg 78%
23:00 +20°C° 0 mm 2 mps 751 mmHg 79%

28 July, Wednesday

Time Temperature Precipitation Wind Pressure Humidity
00:00 +20°C° 0 mm 2 mps 751 mmHg 80%
01:00 +19°C° 0 mm 3 mps 751 mmHg 81%
02:00 +19°C° 0 mm 3 mps 751 mmHg 83%
03:00 +19°C° 0 mm 2 mps 750 mmHg 84%
04:00 +19°C° 0 mm 2 mps 750 mmHg 85%
05:00 +20°C° 0 mm 3 mps 750 mmHg 81%
06:00 +22°C° 0 mm 3 mps 750 mmHg 76%
07:00 +24°C° 0 mm 3 mps 750 mmHg 71%
08:00 +26°C° 0 mm 3 mps 750 mmHg 66%
09:00 +27°C° 0 mm 3 mps 750 mmHg 60%
10:00 +29°C° 0 mm 4 mps 750 mmHg 55%
11:00 +30°C° 0 mm 4 mps 750 mmHg 50%
12:00 +31°C° 0 mm 3 mps 750 mmHg 45%
13:00 +33°C° 0 mm 3 mps 750 mmHg 40%
14:00 +31°C° 0 mm 3 mps 750 mmHg 41%
15:00 +31°C° 0 mm 2 mps 749 mmHg 43%
16:00 +31°C° 0 mm 1 mps 749 mmHg 44%
17:00 +30°C° 0 mm 1 mps 749 mmHg 48%
18:00 +28°C° 0 mm 1 mps 749 mmHg 53%
19:00 +27°C° 0 mm 2 mps 749 mmHg 57%
20:00 +26°C° 0 mm 2 mps 749 mmHg 59%
21:00 +25°C° 0 mm 2 mps 749 mmHg 62%
22:00 +24°C° 0 mm 2 mps 749 mmHg 64%
23:00 +23°C° 0.1 mm 2 mps 749 mmHg 70%

29 July, Thursday

Time Temperature Precipitation Wind Pressure Humidity
00:00 +21°C° 0.1 mm 2 mps 749 mmHg 76%
01:00 +20°C° 0.1 mm 3 mps 749 mmHg 82%
02:00 +19°C° 0.1 mm 3 mps 750 mmHg 85%
03:00 +19°C° 0.1 mm 3 mps 750 mmHg 88%
04:00 +18°C° 0.1 mm 3 mps 750 mmHg 91%
05:00 +19°C° 0 mm 3 mps 750 mmHg 85%
06:00 +20°C° 0 mm 3 mps 751 mmHg 80%
07:00 +21°C° 0 mm 3 mps 751 mmHg 75%
08:00 +24°C° 0 mm 3 mps 751 mmHg 68%
09:00 +25°C° 0 mm 3 mps 751 mmHg 62%
10:00 +27°C° 0 mm 3 mps 751 mmHg 55%
11:00 +28°C° 0 mm 3 mps 751 mmHg 51%
12:00 +28°C° 0 mm 3 mps 751 mmHg 47%
13:00 +29°C° 0 mm 3 mps 751 mmHg 43%
14:00 +30°C° 0 mm 3 mps 750 mmHg 42%
15:00 +30°C° 0 mm 3 mps 750 mmHg 41%
16:00 +30°C° 0 mm 3 mps 750 mmHg 40%
17:00 +29°C° 0 mm 2 mps 750 mmHg 45%
18:00 +28°C° 0 mm 1 mps 750 mmHg 51%
19:00 +26°C° 0 mm 1 mps 750 mmHg 56%
20:00 +25°C° 0 mm 1 mps 750 mmHg 57%
21:00 +25°C° 0 mm 2 mps 749 mmHg 59%
22:00 +24°C° 0 mm 3 mps 749 mmHg 60%
23:00 +22°C° 0.4 mm 3 mps 749 mmHg 67%

30 July, Friday

Time Temperature Precipitation Wind Pressure Humidity
00:00 +21°C° 0.4 mm 3 mps 749 mmHg 74%
01:00 +20°C° 0.4 mm 3 mps 750 mmHg 81%
02:00 +20°C° 0.6 mm 2 mps 750 mmHg 84%
03:00 +20°C° 0.6 mm 2 mps 750 mmHg 86%
04:00 +21°C° 0.6 mm 1 mps 750 mmHg 89%
05:00 +22°C° 0.5 mm 1 mps 750 mmHg 87%
06:00 +23°C° 0.5 mm 1 mps 750 mmHg 85%
07:00 +24°C° 0.5 mm 1 mps 750 mmHg 83%
08:00 +25°C° 0 mm 2 mps 750 mmHg 76%
09:00 +27°C° 0 mm 2 mps 750 mmHg 69%
10:00 +28°C° 0 mm 2 mps 749 mmHg 63%
11:00 +29°C° 0.1 mm 2 mps 749 mmHg 60%
12:00 +29°C° 0.1 mm 3 mps 749 mmHg 57%
13:00 +30°C° 0.1 mm 3 mps 749 mmHg 54%
14:00 +29°C° 0 mm 3 mps 748 mmHg 56%
15:00 +29°C° 0 mm 2 mps 748 mmHg 58%
16:00 +28°C° 0 mm 2 mps 748 mmHg 59%
17:00 +27°C° 0 mm 2 mps 748 mmHg 63%
18:00 +26°C° 0 mm 2 mps 748 mmHg 67%
19:00 +25°C° 0 mm 2 mps 748 mmHg 70%
20:00 +24°C° 0.5 mm 2 mps 748 mmHg 75%
21:00 +23°C° 0.5 mm 1 mps 748 mmHg 79%
22:00 +22°C° 0.5 mm 1 mps 748 mmHg 84%
23:00 +22°C° 0.6 mm 1 mps 748 mmHg 85%
Show more